• En España
  • Lista de países
  • Para 7 días
  • Temperatura del agua
  • Mapa Satelital
  • El tiempo en el mapa
  • Informadores
  • user-avatar
    Iniciar sesión

    Tiempo cada hora Cochabamba

    Hoy, 22 Septiembre, Sábado

    Tiempo Temperatura Precipitaciones Viento Presión Humedad
    00:00 +15°C° 0 mm 2 mps 555 mmHg 72%
    01:00 +15°C° 0 mm 2 mps 555 mmHg 71%
    02:00 +15°C° 0 mm 2 mps 555 mmHg 70%
    03:00 +15°C° 0 mm 2 mps 555 mmHg 70%
    04:00 +14°C° 0 mm 2 mps 555 mmHg 70%
    05:00 +14°C° 0 mm 2 mps 554 mmHg 70%
    06:00 +15°C° 0 mm 2 mps 555 mmHg 67%
    07:00 +16°C° 0 mm 2 mps 556 mmHg 64%
    08:00 +17°C° 0 mm 2 mps 556 mmHg 61%
    09:00 +18°C° 0 mm 3 mps 557 mmHg 56%
    10:00 +20°C° 0 mm 3 mps 557 mmHg 51%
    11:00 +21°C° 0 mm 3 mps 558 mmHg 46%
    12:00 +21°C° 0.1 mm 4 mps 557 mmHg 46%
    13:00 +21°C° 0.1 mm 4 mps 556 mmHg 47%
    14:00 +22°C° 0.1 mm 5 mps 556 mmHg 47%
    15:00 +21°C° 0.1 mm 5 mps 555 mmHg 49%
    16:00 +21°C° 0.1 mm 5 mps 555 mmHg 51%
    17:00 +20°C° 0.1 mm 5 mps 554 mmHg 53%
    18:00 +19°C° 0.1 mm 5 mps 554 mmHg 58%
    19:00 +18°C° 0.1 mm 4 mps 554 mmHg 62%
    20:00 +17°C° 0.1 mm 4 mps 554 mmHg 67%
    21:00 +16°C° 0 mm 3 mps 554 mmHg 69%
    22:00 +16°C° 0 mm 3 mps 555 mmHg 70%
    23:00 +14°C° 0 mm 3 mps 555 mmHg 71%

    Mañana, 23 Septiembre, Domingo

    Tiempo Temperatura Precipitaciones Viento Presión Humedad
    00:00 +15°C° 0 mm 2 mps 554 mmHg 70%
    01:00 +15°C° 0 mm 2 mps 554 mmHg 69%
    02:00 +14°C° 0 mm 2 mps 554 mmHg 68%
    03:00 +14°C° 0 mm 2 mps 553 mmHg 68%
    04:00 +14°C° 0 mm 2 mps 553 mmHg 69%
    05:00 +13°C° 0 mm 2 mps 553 mmHg 70%
    06:00 +15°C° 0 mm 2 mps 554 mmHg 66%
    07:00 +16°C° 0 mm 2 mps 555 mmHg 62%
    08:00 +17°C° 0 mm 2 mps 556 mmHg 59%
    09:00 +18°C° 0 mm 3 mps 556 mmHg 54%
    10:00 +19°C° 0 mm 3 mps 557 mmHg 50%
    11:00 +21°C° 0 mm 3 mps 557 mmHg 45%
    12:00 +21°C° 0.3 mm 3 mps 556 mmHg 45%
    13:00 +21°C° 0.3 mm 4 mps 556 mmHg 45%
    14:00 +22°C° 0.3 mm 4 mps 555 mmHg 45%
    15:00 +21°C° 0.5 mm 5 mps 555 mmHg 47%
    16:00 +20°C° 0.5 mm 5 mps 554 mmHg 50%
    17:00 +20°C° 0.5 mm 5 mps 553 mmHg 53%
    18:00 +19°C° 0.1 mm 4 mps 554 mmHg 58%
    19:00 +18°C° 0.1 mm 4 mps 554 mmHg 63%
    20:00 +17°C° 0.1 mm 3 mps 554 mmHg 68%
    21:00 +16°C° 0.1 mm 3 mps 554 mmHg 68%
    22:00 +16°C° 0.1 mm 3 mps 554 mmHg 69%
    23:00 +16°C° 0.1 mm 2 mps 555 mmHg 69%

    Pasado mañana, 24 Septiembre, Lunes

    Tiempo Temperatura Precipitaciones Viento Presión Humedad
    00:00 +15°C° 0 mm 2 mps 554 mmHg 69%
    01:00 +15°C° 0 mm 2 mps 554 mmHg 69%
    02:00 +15°C° 0 mm 1 mps 554 mmHg 69%
    03:00 +14°C° 0 mm 1 mps 554 mmHg 69%
    04:00 +14°C° 0 mm 1 mps 554 mmHg 69%
    05:00 +14°C° 0 mm 1 mps 554 mmHg 69%
    06:00 +15°C° 0.1 mm 1 mps 554 mmHg 66%
    07:00 +16°C° 0.1 mm 2 mps 555 mmHg 63%
    08:00 +17°C° 0.1 mm 2 mps 556 mmHg 60%
    09:00 +18°C° 0.2 mm 2 mps 556 mmHg 56%
    10:00 +19°C° 0.2 mm 3 mps 557 mmHg 52%
    11:00 +20°C° 0.2 mm 4 mps 557 mmHg 47%
    12:00 +20°C° 0.6 mm 4 mps 557 mmHg 49%
    13:00 +20°C° 0.6 mm 5 mps 556 mmHg 50%
    14:00 +20°C° 0.6 mm 5 mps 555 mmHg 52%
    15:00 +19°C° 0.6 mm 5 mps 555 mmHg 54%
    16:00 +19°C° 0.6 mm 5 mps 554 mmHg 56%
    17:00 +18°C° 0.6 mm 4 mps 554 mmHg 58%
    18:00 +17°C° 0.2 mm 4 mps 554 mmHg 62%
    19:00 +15°C° 0.2 mm 4 mps 554 mmHg 66%
    20:00 +14°C° 0.2 mm 3 mps 554 mmHg 69%
    21:00 +14°C° 0.1 mm 3 mps 554 mmHg 69%
    22:00 +15°C° 0.1 mm 2 mps 554 mmHg 69%
    23:00 +15°C° 0.1 mm 2 mps 555 mmHg 69%

    25 Septiembre, Martes

    Tiempo Temperatura Precipitaciones Viento Presión Humedad
    00:00 +14°C° 0 mm 2 mps 554 mmHg 70%
    01:00 +14°C° 0 mm 2 mps 554 mmHg 71%
    02:00 +14°C° 0 mm 2 mps 553 mmHg 72%
    03:00 +14°C° 0.1 mm 2 mps 553 mmHg 72%
    04:00 +14°C° 0.1 mm 2 mps 553 mmHg 73%
    05:00 +14°C° 0.1 mm 2 mps 553 mmHg 73%
    06:00 +15°C° 0.1 mm 2 mps 554 mmHg 68%
    07:00 +16°C° 0.1 mm 2 mps 555 mmHg 64%
    08:00 +17°C° 0.1 mm 2 mps 556 mmHg 59%
    09:00 +18°C° 0.1 mm 2 mps 556 mmHg 53%
    10:00 +20°C° 0.1 mm 3 mps 557 mmHg 47%
    11:00 +21°C° 0.1 mm 3 mps 557 mmHg 42%
    12:00 +21°C° 0.3 mm 3 mps 557 mmHg 42%
    13:00 +22°C° 0.3 mm 4 mps 556 mmHg 42%
    14:00 +22°C° 0.3 mm 5 mps 556 mmHg 42%
    15:00 +22°C° 0.2 mm 5 mps 555 mmHg 45%
    16:00 +21°C° 0.2 mm 5 mps 554 mmHg 49%
    17:00 +20°C° 0.2 mm 5 mps 554 mmHg 52%
    18:00 +19°C° 0.2 mm 5 mps 554 mmHg 58%
    19:00 +18°C° 0.2 mm 4 mps 554 mmHg 64%
    20:00 +16°C° 0.2 mm 3 mps 553 mmHg 69%
    21:00 +16°C° 0.1 mm 3 mps 554 mmHg 71%
    22:00 +15°C° 0.1 mm 2 mps 554 mmHg 72%
    23:00 +15°C° 0.1 mm 2 mps 554 mmHg 73%

    26 Septiembre, Miércoles

    Tiempo Temperatura Precipitaciones Viento Presión Humedad
    00:00 +15°C° 0 mm 2 mps 553 mmHg 73%
    01:00 +14°C° 0 mm 2 mps 553 mmHg 74%
    02:00 +14°C° 0 mm 1 mps 552 mmHg 74%
    03:00 +14°C° 0 mm 1 mps 552 mmHg 74%
    04:00 +13°C° 0 mm 1 mps 552 mmHg 75%
    05:00 +13°C° 0 mm 2 mps 552 mmHg 75%
    06:00 +14°C° 0 mm 1 mps 553 mmHg 67%
    07:00 +16°C° 0 mm 1 mps 554 mmHg 58%
    08:00 +18°C° 0 mm 1 mps 555 mmHg 50%
    09:00 +19°C° 0 mm 2 mps 556 mmHg 44%
    10:00 +21°C° 0 mm 2 mps 557 mmHg 38%
    11:00 +23°C° 0 mm 2 mps 557 mmHg 32%
    12:00 +24°C° 0.6 mm 3 mps 557 mmHg 33%
    13:00 +24°C° 0.6 mm 3 mps 556 mmHg 34%
    14:00 +23°C° 0.6 mm 4 mps 555 mmHg 35%
    15:00 +23°C° 0.6 mm 4 mps 555 mmHg 39%
    16:00 +22°C° 0.6 mm 4 mps 554 mmHg 43%
    17:00 +21°C° 0.6 mm 5 mps 554 mmHg 48%
    18:00 +20°C° 0.3 mm 4 mps 554 mmHg 52%
    19:00 +19°C° 0.3 mm 4 mps 554 mmHg 57%
    20:00 +18°C° 0.3 mm 3 mps 554 mmHg 62%
    21:00 +17°C° 0.5 mm 3 mps 554 mmHg 64%
    22:00 +16°C° 0.5 mm 2 mps 554 mmHg 66%
    23:00 +16°C° 0.5 mm 2 mps 554 mmHg 69%

    27 Septiembre, Jueves

    Tiempo Temperatura Precipitaciones Viento Presión Humedad
    00:00 +15°C° 0.1 mm 2 mps 554 mmHg 69%
    01:00 +15°C° 0.1 mm 1 mps 553 mmHg 70%
    02:00 +14°C° 0.1 mm 1 mps 553 mmHg 70%
    03:00 +14°C° 0 mm 1 mps 553 mmHg 70%
    04:00 +14°C° 0 mm 1 mps 552 mmHg 70%
    05:00 +14°C° 0 mm 1 mps 552 mmHg 70%
    06:00 +15°C° 0 mm 1 mps 553 mmHg 65%
    07:00 +16°C° 0 mm 1 mps 555 mmHg 61%
    08:00 +18°C° 0 mm 1 mps 556 mmHg 57%
    09:00 +20°C° 0 mm 1 mps 556 mmHg 50%
    10:00 +20°C° 0 mm 2 mps 557 mmHg 43%
    11:00 +23°C° 0 mm 2 mps 557 mmHg 37%
    12:00 +22°C° 0.8 mm 3 mps 557 mmHg 37%
    13:00 +24°C° 0.8 mm 3 mps 556 mmHg 38%
    14:00 +23°C° 0.8 mm 4 mps 556 mmHg 39%
    15:00 +22°C° 0.8 mm 4 mps 555 mmHg 43%
    16:00 +21°C° 0.8 mm 4 mps 555 mmHg 47%
    17:00 +20°C° 0.8 mm 4 mps 554 mmHg 51%
    18:00 +19°C° 0.4 mm 4 mps 554 mmHg 55%
    19:00 +18°C° 0.4 mm 3 mps 555 mmHg 60%
    20:00 +17°C° 0.4 mm 3 mps 555 mmHg 65%
    21:00 +16°C° 0.5 mm 3 mps 555 mmHg 66%
    22:00 +16°C° 0.5 mm 2 mps 555 mmHg 68%
    23:00 +15°C° 0.5 mm 2 mps 555 mmHg 70%
    Mostrar más